Regional Weather Roundup
Issued by NWS Cleveland, OH

Home | Current Version | Previous Version | Graphics & Text | Print | Product List | Glossary On
Versions: 1 2 3 4 5 6 7 8 9 10 11 12 13 14 15 16 17 18 19 20 21 22 23 24 25 26 27 28 29 30 31 32 33 34 35 36 37 38 39 40 41 42 43 44 45 46 47 48 49 50
000
ASUS41 KCLE 221110
RWRCLE
OHIO REGIONAL WEATHER ROUNDUP
NATIONAL WEATHER SERVICE WILMINGTON, OH
700 AM EDT SAT JUL 22 2017

NOTE: "FAIR" INDICATES FEW OR NO CLOUDS BELOW 12,000 FEET WITH NO
SIGNIFICANT WEATHER AND/OR OBSTRUCTIONS TO VISIBILITY.

OHZ001>008-015>018-024>027-034-035-043-044-221200-
   NORTHWEST OHIO

CITY           SKY/WX    TMP DP  RH WIND       PRES   REMARKS
DEFIANCE       LGT RAIN N/A N/A N/A E8        29.84F
FINDLAY        LGT RAIN  73  69  87 S14       29.85F
TOLEDO EXPRESS LGT RAIN  72  72 100 SW7       29.87R
TOLEDO EXEC    LGT RAIN  74  72  93 SW8       29.87R FOG
LIMA           FAIR      70  70 100 S9        29.88F
$$

OHZ009>014-019>023-028>033-038-089-221200-
   NORTHEAST OHIO

CITY           SKY/WX    TMP DP  RH WIND       PRES   REMARKS
CLE-HOPKINS    CLOUDY    76  71  85 S7        29.90S
CLE-LAKEFRONT  MOCLDY    76  66  71 S12       29.86F
CUY CO. ARPT   MOCLDY    75  63  64 S9        29.89
LORAIN-ELYRIA  LGT RAIN  72  66  81 S3        29.89F
ASHTABULA      FAIR      67  66  97 E5        29.91F
AKRON-CANTON   CLOUDY    75  72  90 SW8       29.91S FOG
WOOSTER        CLOUDY    72  72 100 S6        29.92S FOG
MANSFIELD      TSTM      73  72  96 S7        29.92F FOG
YOUNGSTOWN     CLOUDY    71  68  90 S7        29.91F
$$

OHZ042-051>053-060>062-070>072-077>081-221200-
  SOUTHWEST OHIO

CITY           SKY/WX    TMP DP  RH WIND       PRES   REMARKS
CINC-COVINGTON CLOUDY    77  76  96 SW5       29.91R
CINC-LUNKEN    CLOUDY    73  73 100 CALM      29.91R
HAMILTON       MOCLDY    77  72  84 NW8       29.93R
DAYTON         LGT RAIN  71  69  93 W3        29.93S
WRIGHT-PAT AFB LGT RAIN  71  71 100 CALM      29.92S
DAYTON GENERAL FAIR      74  70  87 NW6       29.92F
WILMINGTON     TSTM      75  74  96 NW15      29.93R
$$

OHZ036-037-039>041-045>050-054>059-063>069-073>076-082>088-221200-
  CENTRAL AND SOUTHEAST OHIO

CITY           SKY/WX    TMP DP  RH WIND       PRES   REMARKS
COLUMBUS       TSTM      74  73  97 W30G39    29.94R FOG
OSU AIRPORT    TSTM      71  71 100 W13       29.93R FOG
BOLTON FIELD   NOT AVBL
RICKENBACK AFB MOCLDY    72  72 100 CALM      29.89S
NEWARK         TSTM      73  71  93 S12       29.90S VSB 1
MARION         TSTM      71  70  96 CALM      29.91F FOG
LANCASTER      FAIR      70  70 100 SE7       29.91S
ZANESVILLE     CLOUDY    72  70  93 SE5       29.92F FOG
NEW PHILLY     CLOUDY    75  73  93 S3        29.92F
$$




USA.gov is the U.S. government's official web portal to all federal, state and local government web resources and services.